Wilmington, NC

1:16 PM EDT on May 23, 2018 (GMT -0400)
Wilmington International

Weather History for KILM - October, 2011

Change the Weather History Date:

Saturday, October 1, 2011

  Actual Average Record
Temperature  
Mean Temperature 60 °F 70 °F  
Max Temperature 68 °F 80 °F 92 °F (1986)
Min Temperature 52 °F 60 °F 45 °F (1993)
Degree Days  
Heating Degree Days 5 1  
Month to date heating degree days 5 1  
Since 1 July heating degree days 5 6  
Cooling Degree Days 0 6  
Month to date cooling degree days 0 6  
Year to date cooling degree days 2236 1923  
Growing Degree Days 10 (Base 50)    
Moisture  
Dew Point 46 °F    
Average Humidity 65    
Maximum Humidity 90    
Minimum Humidity 40    
Precipitation  
Precipitation 0.00 in 0.18 in 3.30 in (1906)
Month to date precipitation 0.00 0.18  
Year to date precipitation 38.47 46.99  
Sea Level Pressure  
Sea Level Pressure 29.85 in    
Wind  
Wind Speed 11 mph (NW)    
Max Wind Speed 21 mph    
Max Gust Speed 28 mph    
Visibility 10 miles    
Events      
T = Trace of Precipitation, MM = Missing Value Source: NWS Daily Summary

Daily Weather History Graph

Daily Weather History Graph

Search for Another Location

Airport or City:

Astronomy

Oct. 01, 2011 Rise Set
Actual Time 7:05 AM EDT 6:56 PM EDT
Civil Twilight 6:40 AM EDT 7:21 PM EDT
Nautical Twilight 6:11 AM EDT 7:50 PM EDT
Astronomical Twilight 5:42 AM EDT 8:19 PM EDT
Moon 11:55 AM EDT (10/1) 10:06 PM EDT (10/1)
Length of Visible Light 12h 40m
Length of Day
11h 50m
Waxing Crescent, 24% of the Moon is Illuminated
Oct 1
Waxing Crescent
Oct 3
First Quarter
Oct 11
Full
Oct 19
Last Quarter
Oct 26
New

Hourly Weather History & Observations

Time (EDT) Temp. Dew Point Humidity Pressure Visibility Wind Dir Wind Speed Gust Speed Precip Events Conditions
12:53 AM 64.0 °F 61.0 °F 90% 29.76 in 10.0 mi NNW 3.5 mph - N/A   Clear
1:53 AM 62.1 °F 57.9 °F 86% 29.75 in 10.0 mi NW 6.9 mph - N/A   Clear
2:53 AM 61.0 °F 57.9 °F 90% 29.75 in 10.0 mi NW 10.4 mph - N/A   Clear
3:53 AM 59.0 °F 53.1 °F 81% 29.75 in 10.0 mi NW 9.2 mph - N/A   Clear
4:53 AM 57.9 °F 52.0 °F 81% 29.75 in 10.0 mi NW 11.5 mph - N/A   Clear
5:53 AM 57.0 °F 51.1 °F 81% 29.78 in 10.0 mi NW 11.5 mph - N/A   Clear
6:53 AM 55.9 °F 48.9 °F 77% 29.81 in 10.0 mi NW 13.8 mph 21.9 mph N/A   Clear
7:53 AM 55.9 °F 48.0 °F 75% 29.83 in 10.0 mi NNW 10.4 mph - N/A   Clear
8:53 AM 57.9 °F 48.0 °F 70% 29.84 in 10.0 mi NW 13.8 mph 25.3 mph N/A   Mostly Cloudy
9:53 AM 61.0 °F 44.1 °F 54% 29.86 in 10.0 mi NNW 18.4 mph 26.5 mph N/A   Clear
10:53 AM 63.0 °F 44.1 °F 50% 29.85 in 10.0 mi NW 12.7 mph - N/A   Clear
11:53 AM 64.0 °F 45.0 °F 50% 29.85 in 10.0 mi NNW 12.7 mph - N/A   Clear
12:53 PM 66.0 °F 45.0 °F 47% 29.85 in 10.0 mi WNW 13.8 mph 19.6 mph N/A   Clear
1:53 PM 66.0 °F 43.0 °F 43% 29.83 in 10.0 mi WNW 13.8 mph - N/A   Clear
2:53 PM 64.9 °F 39.9 °F 40% 29.83 in 10.0 mi WNW 12.7 mph - N/A   Clear
3:53 PM 64.9 °F 41.0 °F 42% 29.84 in 10.0 mi WNW 10.4 mph 20.7 mph N/A   Scattered Clouds
4:53 PM 66.0 °F 42.1 °F 42% 29.86 in 10.0 mi NW 11.5 mph - N/A   Partly Cloudy
5:53 PM 64.9 °F 39.0 °F 39% 29.88 in 10.0 mi WNW 16.1 mph - N/A   Clear
6:53 PM 62.1 °F 39.9 °F 44% 29.90 in 10.0 mi WNW 8.1 mph - N/A   Clear
7:53 PM 59.0 °F 42.1 °F 53% 29.91 in 10.0 mi WNW 6.9 mph - N/A   Clear
8:53 PM 57.0 °F 42.1 °F 57% 29.94 in 10.0 mi West 5.8 mph - N/A   Clear
9:53 PM 54.0 °F 43.0 °F 66% 29.95 in 10.0 mi NW 4.6 mph - N/A   Clear
10:53 PM 54.0 °F 42.1 °F 64% 29.96 in 10.0 mi WNW 5.8 mph - N/A   Clear
11:53 PM 51.8 °F 42.8 °F 71% 29.97 in 10.0 mi WNW 5.8 mph - N/A   Clear